Terminal Aerodrome Forecast
Issued by NWS

Home | Current Version | Previous Version | Text Only | Print | Product List | Glossary On
Versions: 1 2 3 4 5 6 7 8 9 10 11 12 13
000
FTUS45 KABQ 162300
TAFROW
TAF
KROW 162330Z 1700/1724 12012KT P6SM SCT250
     FM170300 01020G30KT P6SM SCT050 BKN200
     FM171500 02015KT P6SM SCT050 SCT150
     FM172000 07007KT P6SM SCT070 SCT250=

USA.gov is the U.S. government's official web portal to all federal, state and local government web resources and services.